Regional Weather Roundup
Issued by NWS Mt. Holly, NJ

Home | Current Version | Previous Version | Text Only | Print | Product List | Glossary On
Versions: 1 2 3 4 5 6 7 8 9 10 11 12 13 14 15 16 17 18 19 20 21 22 23 24 25 26 27 28 29 30 31 32 33 34 35 36 37 38 39 40 41 42 43 44 45 46 47 48 49 50
000
ASUS41 KPHI 050912
RWRPHI

REGIONAL WEATHER ROUNDUP
NATIONAL WEATHER SERVICE MOUNT HOLLY NJ
500 AM EDT SUN JUL 05 2015

NOTE:  "FAIR" INDICATES FEW OR NO CLOUDS BELOW 12,000 FEET WITH NO
SIGNIFICANT WEATHER AND/OR OBSTRUCTIONS TO VISIBILITY.

 * = STATION DOES NOT REPORT PRECIPITATION (E.G. RAIN, SNOW, ETC.)
        OR FOG.

NJZ015>026-051000-
SOUTHERN NEW JERSEY

CITY           SKY/WX    TMP DP  RH WIND       PRES   REMARKS
POMONA         CLOUDY    67  63  87 CALM      30.06R
RIO GRANDE*    CLOUDY    68  63  83 N3        30.07R
MILLVILLE      CLOUDY    67  61  81 NW3       30.06S
WRIGHTSTOWN    CLOUDY    67  59  75 CALM      30.05R
MOUNT HOLLY    MOCLDY    65  62  90 CALM      30.07R
TRENTON        CLOUDY    66  59  78 NW3       30.07R

$$
NJZ001>014-051000-
NORTHERN NEW JERSEY

CITY           SKY/WX    TMP DP  RH WIND       PRES   REMARKS
SUSSEX         CLOUDY    58  56  93 CALM      30.08R FOG
ANDOVER*         N/A     59  58  96 CALM      30.09R
MORRISTOWN     CLEAR     61  59  94 CALM      30.07R FOG
NEWARK         CLOUDY    70  60  70 W6        30.06R
TETERBORO      CLOUDY    68  60  75 CALM      30.05R
CALDWELL       CLOUDY    63  59  87 CALM      30.07R
SOMERVILLE     PTCLDY    60  59  96 CALM      30.06R FOG
ALLAIRE*       CLOUDY    66  55  68 NW3       30.07R
TOMS RIVER*    CLOUDY    66  59  77 CALM      30.07R

$$
PAZ043-044-047-054-055-060>062-066>071-051000-
EASTERN PENNSYLVANIA

CITY           SKY/WX    TMP DP  RH WIND       PRES   REMARKS
PHILADELPHIA   PTCLDY    68  58  70 NW5       30.07R
NORTH PHILA    CLEAR     66  56  70 CALM      30.09R
BLUE BELL      CLOUDY    63  63 100 CALM      30.08R
DOYLESTOWN     CLOUDY    66  61  84 NW3       30.08R
QUAKERTOWN*    CLOUDY    64  63  94 CALM      30.10R
POTTSTOWN      FOG       64  64 100 CALM      30.10R VSB 1
LANCASTER      PTCLDY    63  62  97 NW3       30.08S FOG
COATESVILLE    MOCLDY    64  64 100 CALM      30.09S FOG
READING        PTCLDY    64  62  93 CALM      30.08R
ALLENTOWN      PTCLDY    61  59  94 CALM      30.08S FOG
MOUNT POCONO   CLOUDY    59  57  93 W3        30.11R FOG
HAZLETON       FOG       57  57 100 CALM      30.14S VSB 1/4
WILKES BARRE   CLOUDY    63  61  93 SW5       30.09R FOG

$$
DEZALL-MDZ008-012-015-019-020-051000-
DELAWARE AND EASTERN MARYLAND

CITY           SKY/WX    TMP DP  RH WIND       PRES   REMARKS
WILMINGTON     MOCLDY    65  62  90 N3        30.08R
DOVER          CLEAR     66  66 100 E2        30.04S
GEORGETOWN     CLOUDY    68  66  93 CALM      30.06R
EASTON         PTCLDY   N/A N/A N/A CALM      30.09S FOG
PATUXENT       CLOUDY    70  70 100 NW6       30.05S FOG
OCEAN CITY     MOCLDY    69  68  96 CALM      30.05R FOG
WALLOPS ISLAND CLOUDY    70  70 100 N5        30.05R FOG
CAMBRIDGE      MOCLDY    72  68  88 CALM      30.06R
SALISBURY      CLOUDY    70  69  97 N3        30.05R FOG

$$
PAZ001-021-NYZ056-072-MDZ011-DCZ001-051000-
OTHER NEARBY LOCATIONS

CITY           SKY/WX    TMP DP  RH WIND       PRES   REMARKS
HARRISBURG     FOG       64  62  93 CALM      30.08S VSB 1/4
STATE COLLEGE  CLOUDY    63  63  99 CALM      30.11S FOG
WILLIAMSPORT   CLOUDY    63  60  90 CALM      30.08S FOG
BINGHAMTON     FOG       58  58 100 W6        30.09R VSB 1/4
NEW YORK CITY  CLOUDY    70  58  65 CALM      30.08R
BALTIMORE      PTCLDY    65  64  97 CALM      30.07R FOG
WASHINGTON DC  CLOUDY    72  66  83 NE5       30.07S HAZE

$$



USA.gov is the U.S. government's official web portal to all federal, state and local government web resources and services.